Regional Weather Roundup
Issued by NWS

Home | Current Version | Previous Version | Text Only | Print | Product List | Glossary On
Versions: 1 2 3 4 5 6 7 8 9 10 11 12 13 14 15 16 17 18 19 20 21 22 23 24 25 26 27 28 29 30 31 32 33 34 35 36 37 38 39 40 41 42 43 44 45 46 47 48 49 50
000
ASUS46 KPQR 121810
RWROR

OREGON REGIONAL WEATHER ROUNDUP
NATIONAL WEATHER SERVICE PORTLAND OR
1100 AM PDT SAT JUL 12 2014

NOTE: "FAIR" INDICATES FEW OR NO CLOUDS BELOW 12,000 FEET WITH
NO SIGNIFICANT WEATHER AND/OR OBSTRUCTIONS TO VISIBILITY.

ORZ001>013-121900-
NORTHWEST OREGON


CITY           SKY/WX    TMP DP  RH WIND       PRES   REMARKS
ASTORIA        CLOUDY    60  56  86 VRB3      30.13S
NEWPORT        CLOUDY    57  55  94 SW6       30.17S
PORTLAND       SUNNY     73  61  65 VRB5      30.08F
6HR MIN TEMP:  63; 6HR MAX TEMP:  74;

VANCOUVER WA   SUNNY     74  61  63 SW7       30.08S
6HR MIN TEMP:  60; 6HR MAX TEMP:  74;

SCAPPOOSE      SUNNY     76  61  59 E6        30.07F
6HR MIN TEMP:  57; 6HR MAX TEMP:  76;

HILLSBORO      SUNNY     79  59  50 VRB6      30.08S
6HR MIN TEMP:  59; 6HR MAX TEMP:  79;

AURORA         SUNNY     76  60  57 SW5       30.09F
6HR MIN TEMP:  61; 6HR MAX TEMP:  76;

MCMINNVILLE    SUNNY     76  59  55 CALM      30.09F
6HR MIN TEMP:  58; 6HR MAX TEMP:  76;

SALEM          SUNNY     76  59  55 VRB5      30.08S
6HR MIN TEMP:  60; 6HR MAX TEMP:  77;

CORVALLIS      SUNNY     72  57  60 W5        30.11S
EUGENE         MOSUNNY   72  57  59 CALM      30.10F
6HR MIN TEMP:  55; 6HR MAX TEMP:  72;

$$

ORZ021-028-121900-
SOUTHWEST OREGON


CITY           SKY/WX    TMP DP  RH WIND       PRES   REMARKS
NORTH BEND     CLOUDY    57  55  94 W5        30.15S
6HR MIN TEMP:  54; 6HR MAX TEMP:  57;

BROOKINGS      CLOUDY    58  54  86 W7        30.14R
ROSEBURG       SUNNY     76  59  55 CALM      30.08F
6HR MIN TEMP:  62; 6HR MAX TEMP:  76;

SEXTON SUMMIT  SUNNY     77  57  50 VRB3      30.20R
6HR MIN TEMP:  64; 6HR MAX TEMP:  77;

MEDFORD        SUNNY     81  58  45 CALM      30.06F
6HR MIN TEMP:  64; 6HR MAX TEMP:  83;

$$

ORZ009-041-121900-
COLUMBIA GORGE


CITY           SKY/WX    TMP DP  RH WIND       PRES   REMARKS
TROUTDALE      SUNNY     76  60  57 VRB5      30.07S
6HR MIN TEMP:  62; 6HR MAX TEMP:  76;

THE DALLES     SUNNY     86  57  37 NW12      30.02F
6HR MIN TEMP:  66; 6HR MAX TEMP:  86;

$$

ORZ029>031-042>050-061>064-121900-
EASTERN OREGON


CITY           SKY/WX    TMP DP  RH WIND       PRES   REMARKS
REDMOND        SUNNY     86  37  17 VRB3      30.16F
6HR MIN TEMP:  51; 6HR MAX TEMP:  86;

BEND             N/A    N/A N/A N/A S5        30.19F
KLAMATH FALLS  SUNNY     79  54  41 VRB3      30.22S
6HR MIN TEMP:  52; 6HR MAX TEMP:  79;

LAKEVIEW       MOSUNNY   82  48  30 NW6       30.28S
HERMISTON      SUNNY     88  49  25 W6        30.04S
6HR MIN TEMP:  60; 6HR MAX TEMP:  88;

PENDLETON      SUNNY     90  37  15 N6        30.07F
6HR MIN TEMP:  63; 6HR MAX TEMP:  91;

JOHN DAY       CLEAR     84  37  18 SW3       30.21S
MEACHAM        SUNNY     84  44  24 VRB3      30.21R
6HR MIN TEMP:  53; 6HR MAX TEMP:  84;

LA GRANDE      SUNNY     82  48  30 NE3       30.14S
6HR MIN TEMP:  61; 6HR MAX TEMP:  82;

BAKER CITY     SUNNY     82  48  30 W6        30.18S
6HR MIN TEMP:  54; 6HR MAX TEMP:  83;

BURNS          SUNNY     81  46  29 CALM      30.23F
6HR MIN TEMP:  45; 6HR MAX TEMP:  81;

ROME             N/A     83  46  27 VRB6      30.20S
6HR MIN TEMP:  56; 6HR MAX TEMP:  85;

ONTARIO        SUNNY     91  44  19 E3        30.09S
6HR MIN TEMP:  68; 6HR MAX TEMP:  91;

$$


USA.gov is the U.S. government's official web portal to all federal, state and local government web resources and services.